| time (UTC) | temp F | wind direction | speed MPH | gust MPH | rain 1hr in | rain 24hr in | rain mn in | humidity % | barometer mb |
| 20260506072904 | 51 | 270 | 2.0 | 2.0 | 0.00 | 0.00 | 0.00 | 95 | 1017.6 |
| 20260506072344 | 51 | 225 | 0.0 | 0.0 | 0.00 | 0.00 | 0.00 | 95 | 1017.6 |
| 20260506071843 | 51 | 225 | 1.0 | 1.0 | 0.00 | 0.00 | 0.00 | 95 | 1017.5 |
| 20260506071323 | 51 | 225 | 0.0 | 0.0 | 0.00 | 0.00 | 0.00 | 95 | 1017.5 |
| 20260506070804 | 51 | 270 | 0.0 | 0.0 | 0.00 | 0.00 | 0.00 | 95 | 1017.5 |
| 20260506070248 | 50 | 203 | 0.0 | 0.0 | 0.00 | 0.00 | 0.00 | 95 | 1017.4 |
| 20260506061959 | 51 | 248 | 4.0 | 4.0 | 0.00 | 0.00 | 0.03 | 95 | 1017.2 |
| 20260506061439 | 51 | 248 | 3.0 | 3.0 | 0.00 | 0.00 | 0.03 | 95 | 1017.1 |
| 20260506060404 | 51 | 225 | 0.0 | 0.0 | 0.00 | 0.00 | 0.03 | 95 | 1017.1 |
| 20260506051033 | 50 | 225 | 3.0 | 3.0 | 0.00 | 0.00 | 0.03 | 94 | 1016.9 |
| 20260506050514 | 50 | 225 | 3.0 | 3.0 | 0.00 | 0.00 | 0.03 | 94 | 1016.7 |
| 20260506044919 | 50 | 248 | 1.0 | 1.0 | 0.00 | 0.00 | 0.03 | 94 | 1016.5 |
| 20260506043844 | 51 | 248 | 2.0 | 2.0 | 0.00 | 0.00 | 0.03 | 93 | 1016.4 |
| 20260506043324 | 51 | 203 | 1.0 | 1.0 | 0.00 | 0.00 | 0.03 | 93 | 1016.4 |
| 20260506042803 | 51 | 203 | 0.0 | 0.0 | 0.00 | 0.00 | 0.03 | 92 | 1016.2 |
| 20260506042243 | 51 | 225 | 0.0 | 0.0 | 0.00 | 0.00 | 0.03 | 92 | 1016.2 |
| 20260506041729 | 51 | 203 | 0.0 | 0.0 | 0.00 | 0.00 | 0.03 | 92 | 1016.0 |
| 20260506041209 | 51 | 248 | 0.0 | 0.0 | 0.00 | 0.00 | 0.03 | 91 | 1016.0 |
| 20260506040648 | 52 | 225 | 0.0 | 0.0 | 0.00 | 0.00 | 0.03 | 91 | 1016.0 |
| 20260506040129 | 52 | 225 | 3.0 | 3.0 | 0.00 | 0.00 | 0.03 | 90 | 1016.0 |
| 20260506035613 | 52 | 180 | 2.0 | 2.0 | 0.00 | 0.00 | 0.03 | 90 | 1016.0 |
| 20260506035053 | 52 | 225 | 0.0 | 0.0 | 0.00 | 0.00 | 0.03 | 90 | 1015.8 |
| 20260506034533 | 52 | 225 | 0.0 | 0.0 | 0.00 | 0.00 | 0.03 | 89 | 1015.8 |
| 20260506033513 | 53 | 248 | 0.0 | 0.0 | 0.00 | 0.00 | 0.03 | 87 | 1015.6 |
| 20260506032439 | 53 | 203 | 0.0 | 0.0 | 0.00 | 0.00 | 0.03 | 86 | 1015.3 |
| 20260506031919 | 54 | 158 | 0.0 | 0.0 | 0.00 | 0.00 | 0.03 | 86 | 1015.0 |
| 20260506030824 | 55 | 180 | 0.0 | 0.0 | 0.00 | 0.00 | 0.03 | 84 | 1015.0 |
| 20260506030304 | 55 | 203 | 0.0 | 0.0 | 0.00 | 0.00 | 0.03 | 83 | 1015.0 |
| 20260506025744 | 56 | 203 | 0.0 | 0.0 | 0.00 | 0.00 | 0.03 | 82 | 1015.0 |
| 20260506025228 | 56 | 158 | 0.0 | 0.0 | 0.00 | 0.00 | 0.03 | 82 | 1014.8 |
| 20260506024709 | 56 | 90 | 0.0 | 0.0 | 0.00 | 0.00 | 0.03 | 80 | 1014.8 |
| 20260506024149 | 57 | 203 | 1.0 | 1.0 | 0.00 | 0.00 | 0.03 | 80 | 1014.6 |
| 20260506023629 | 57 | 270 | 3.0 | 3.0 | 0.00 | 0.00 | 0.03 | 80 | 1014.6 |
| 20260506023114 | 57 | 248 | 3.0 | 3.0 | 0.00 | 0.00 | 0.03 | 79 | 1014.6 |
| 20260506022034 | 57 | 225 | 3.0 | 3.0 | 0.00 | 0.00 | 0.03 | 78 | 1014.6 |
| 20260506021514 | 58 | 270 | 4.0 | 4.0 | 0.00 | 0.00 | 0.03 | 77 | 1014.5 |
| 20260506020958 | 58 | 225 | 4.0 | 4.0 | 0.00 | 0.00 | 0.03 | 77 | 1014.5 |
| 20260506020439 | 59 | 270 | 7.0 | 7.0 | 0.00 | 0.00 | 0.03 | 75 | 1014.5 |
| 20260506015419 | 59 | 203 | 6.0 | 6.0 | 0.00 | 0.00 | 0.03 | 75 | 1014.4 |
| 20260506014839 | 60 | 225 | 5.0 | 5.0 | 0.00 | 0.00 | 0.03 | 74 | 1014.4 |
| 20260506014324 | 60 | 203 | 5.0 | 5.0 | 0.00 | 0.00 | 0.03 | 74 | 1014.4 |
| 20260506013804 | 59 | 225 | 4.0 | 4.0 | 0.00 | 0.00 | 0.03 | 76 | 1014.4 |
| 20260506013244 | 59 | 248 | 6.0 | 6.0 | 0.00 | 0.00 | 0.03 | 76 | 1014.4 |
| 20260506012724 | 59 | 248 | 6.0 | 6.0 | 0.00 | 0.00 | 0.03 | 76 | 1014.4 |
| 20260506012224 | 59 | 248 | 5.0 | 5.0 | 0.00 | 0.00 | 0.03 | 76 | 1014.4 |
| 20260506011709 | 60 | 203 | 3.0 | 3.0 | 0.00 | 0.00 | 0.03 | 76 | 1014.3 |
| 20260506011149 | 60 | 270 | 4.0 | 4.0 | 0.00 | 0.00 | 0.03 | 75 | 1014.3 |
| 20260506010629 | 60 | 203 | 4.0 | 4.0 | 0.00 | 0.00 | 0.03 | 74 | 1014.5 |
| 20260506010109 | 60 | 225 | 4.0 | 4.0 | 0.00 | 0.00 | 0.03 | 74 | 1014.5 |
| 20260506005554 | 61 | 270 | 4.0 | 4.0 | 0.00 | 0.00 | 0.03 | 74 | 1014.5 |
| 20260506005034 | 61 | 270 | 4.0 | 4.0 | 0.00 | 0.00 | 0.03 | 73 | 1014.4 |
| 20260506004514 | 61 | 270 | 4.0 | 4.0 | 0.00 | 0.00 | 0.03 | 73 | 1014.4 |
| 20260506003939 | 61 | 270 | 4.0 | 4.0 | 0.00 | 0.00 | 0.03 | 72 | 1014.4 |
| 20260506003419 | 61 | 203 | 5.0 | 5.0 | 0.00 | 0.00 | 0.03 | 72 | 1014.4 |
| 20260506002339 | 61 | 203 | 5.0 | 5.0 | 0.00 | 0.00 | 0.03 | 72 | 1014.4 |
| 20260506001824 | 61 | 270 | 4.0 | 4.0 | 0.00 | 0.00 | 0.03 | 72 | 1014.2 |
| 20260506001304 | 62 | 225 | 5.0 | 5.0 | 0.00 | 0.00 | 0.03 | 71 | 1014.2 |
| 20260506000744 | 63 | 0 | 5.0 | 5.0 | 0.00 | 0.00 | 0.03 | 70 | 1014.2 |
| 20260506000206 | 63 | 225 | 5.0 | 5.0 | 0.00 | 0.00 | 0.03 | 69 | 1014.2 |
| 20260505235649 | 63 | 225 | 4.0 | 4.0 | 0.00 | 0.00 | 0.03 | 70 | 1014.2 |
| 20260505235129 | 62 | 225 | 4.0 | 4.0 | 0.00 | 0.00 | 0.03 | 72 | 1014.3 |
| 20260505234049 | 63 | 225 | 5.0 | 5.0 | 0.00 | 0.00 | 0.03 | 70 | 1014.2 |
| 20260505233534 | 63 | 270 | 6.0 | 6.0 | 0.00 | 0.00 | 0.03 | 70 | 1014.2 |
| 20260505233014 | 64 | 270 | 3.0 | 3.0 | 0.00 | 0.00 | 0.03 | 70 | 1014.3 |
| 20260505230859 | 64 | 270 | 6.0 | 6.0 | 0.00 | 0.00 | 0.03 | 70 | 1014.3 |
| 20260505230339 | 64 | 248 | 5.0 | 5.0 | 0.00 | 0.00 | 0.03 | 69 | 1014.3 |
| 20260505225819 | 65 | 270 | 3.0 | 3.0 | 0.00 | 0.00 | 0.03 | 68 | 1014.3 |
| 20260505225224 | 65 | 248 | 4.0 | 4.0 | 0.00 | 0.00 | 0.03 | 69 | 1014.4 |
| 20260505223644 | 67 | 248 | 6.0 | 6.0 | 0.00 | 0.00 | 0.03 | 66 | 1014.3 |
| 20260505223144 | 68 | 248 | 3.0 | 3.0 | 0.00 | 0.00 | 0.03 | 65 | 1014.4 |
| 20260505222629 | 68 | 225 | 5.0 | 5.0 | 0.00 | 0.00 | 0.03 | 65 | 1014.4 |
| 20260505222109 | 67 | 180 | 4.0 | 4.0 | 0.00 | 0.00 | 0.03 | 66 | 1014.4 |
| 20260505221609 | 68 | 248 | 5.0 | 5.0 | 0.00 | 0.00 | 0.03 | 66 | 1014.5 |
| 20260505215954 | 66 | 248 | 3.0 | 3.0 | 0.00 | 0.00 | 0.03 | 67 | 1014.5 |
| 20260505215434 | 66 | 203 | 2.0 | 2.0 | 0.00 | 0.00 | 0.03 | 68 | 1014.6 |
| 20260505214914 | 66 | 293 | 3.0 | 3.0 | 0.00 | 0.00 | 0.03 | 69 | 1014.6 |
| 20260505214339 | 65 | 225 | 4.0 | 4.0 | 0.00 | 0.00 | 0.03 | 68 | 1014.7 |
| 20260505213259 | 65 | 203 | 4.0 | 4.0 | 0.00 | 0.00 | 0.03 | 68 | 1014.7 |
| 20260505212744 | 66 | 203 | 4.0 | 4.0 | 0.00 | 0.00 | 0.03 | 67 | 1014.7 |